Retour au catalogue

STARLINK-35335

ActifCommunicationsVLEO
NORAD 66180·PAYLOAD·🇺🇸 United States

Lancé Oct 26, 2025 depuis Cape Canaveral Space Force Station

Loading…

Prochains Passages (prochaines 24 heures)

TLE

FraisSource: CelesTrak SupGP

Époque: Sep 14, 2026, 15:15 UTC

1 66180C 25243D   26257.63590278 -.00024712  00000+0 -73003-3 0  2579
2 66180  53.1567  85.2841 0001190  95.4730 319.6299 15.34406621    19

Suivez STARLINK-35335 en temps réel avec AllMySat

Download on the App Store